Regional Weather Roundup
Issued by NWS Boston, MA

Current Version | Previous Version | Text Only | Print | Product List | Glossary On
Versions: 1 2 3 4 5 6 7 8 9 10 11 12 13 14 15 16 17 18 19 20 21 22 23 24 25 26 27 28 29 30 31 32 33 34 35 36 37 38 39 40 41 42 43 44 45 46 47 48 49 50
000 ASUS41 KBOX 291610 RWRBOX REGIONAL WEATHER ROUNDUP NATIONAL WEATHER SERVICE TAUNTON MA 1200 PM EDT SUN MAR 29 2015 NOTE: "FAIR" INDICATES FEW OR NO CLOUDS BELOW 12,000 FEET WITH NO SIGNIFICANT WEATHER AND/OR OBSTRUCTIONS TO VISIBILITY. THE FOLLOWING OBSERVATION LOCATIONS DO NOT REPORT PRESENT WEATHER...PROVINCETOWN... SMITHFIELD...BLOCK ISLAND...KEENE...AND OXFORD. MAZALL-291700- EASTERN MASSACHUSETTS CITY SKY/WX TMP DP RH WIND PRES REMARKS BOSTON SUNNY 35 8 32 VRB3 30.20F BEVERLY SUNNY 35 3 26 CALM 30.18F LAWRENCE SUNNY 34 5 29 MISG 30.20F BEDFORD SUNNY 34 2 25 W10 30.18F WCI 26 BLUE HILL N/A 33 5 30 VRB5 30.15F WCI 29 NORWOOD SUNNY 35 3 26 NE6 30.19F WCI 30 MARSHFIELD SUNNY 34 12 40 N6 30.22S WCI 29 PLYMOUTH SUNNY 33 15 47 NE9 30.19F WCI 25 TAUNTON SUNNY 37 13 37 VRB5 30.19F NEW BEDFORD SUNNY 36 19 50 NE8 30.19F WCI 30 $$ MAZALL-291700- CAPE COD AND THE ISLANDS CITY SKY/WX TMP DP RH WIND PRES REMARKS FALMOUTH SUNNY 34 18 51 N13 30.19S WCI 25 HYANNIS SUNNY 36 21 54 NW14G23 30.16S WCI 27 CHATHAM MOSUNNY 35 18 49 NE13 30.18S WCI 26 PROVINCETOWN SUNNY 36 12 38 N12 30.20S WCI 27 NANTUCKET SUNNY 39 21 48 N14 30.16F WCI 31 MARTHAS VNYRD MOSUNNY 36 14 40 NE13 30.18S WCI 27 $$ MAZALL-291700- CENTRAL AND WESTERN MASSACHUSETTS CITY SKY/WX TMP DP RH WIND PRES REMARKS WORCESTER SUNNY 32 5 32 NW8 30.15F WCI 25 FITCHBURG SUNNY 37 5 26 VRB6 30.19F ORANGE SUNNY 33 1 25 MISG 30.18F SPRINGFIELD SUNNY 34 3 26 N7 30.20F WCI 28 WESTFIELD SUNNY 38 5 25 NW12 30.21F WCI 30 NORTH ADAMS SUNNY 31 2 29 NW6 30.22F WCI 25 PITTSFIELD SUNNY 30 4 33 NW15 30.17F WCI 19 $$ RIZALL-291700- RHODE ISLAND CITY SKY/WX TMP DP RH WIND PRES REMARKS PROVIDENCE MOSUNNY 35 11 36 N9 30.20F WCI 28 NEWPORT SUNNY 33 14 45 N9 30.20S WCI 25 BLOCK ISLAND SUNNY 32 16 51 N8 30.20F WCI 25 SMITHFIELD SUNNY 34 9 35 N7 30.17F WCI 28 WESTERLY SUNNY 34 17 50 VRB3 30.21F $$ CTZALL-291700- CONNECTICUT CITY SKY/WX TMP DP RH WIND PRES REMARKS BRADLEY INTL SUNNY 38 2 22 N8 30.21F HARTFORD SUNNY 36 9 32 NE8 30.23F WCI 30 BRIDGEPORT SUNNY 38 8 29 NW9 30.25S WCI 31 DANBURY SUNNY 34 4 28 NW12 30.25F WCI 25 GROTON SUNNY 36 13 38 N8 30.22S WCI 30 NEW HAVEN SUNNY 38 11 32 N8 30.23F CHESTER FAIR 34 7 32 N12 30.21F WCI 25 MERIDEN SUNNY 36 5 27 N13 30.23F WCI 27 WILLIMANTIC SUNNY 35 6 29 NW5 30.21F WCI 31 OXFORD SUNNY 30 3 31 N12G21 30.22F WCI 21 $$ MEZ002-015-021-024-NHZ003-005-008-011-012-014-VTZ005-008-291700- NORTHERN NEW ENGLAND CITY SKY/WX TMP DP RH WIND PRES REMARKS PORTLAND ME SUNNY 38 3 23 NW3 30.16F BANGOR ME SUNNY 33 2 26 VRB5 30.11F WCI 29 CONCORD NH SUNNY 36 0 21 NW10 30.17F WCI 28 MANCHESTER NH SUNNY 36 2 23 N13 30.16F WCI 27 NASHUA NH SUNNY 36 -2 20 NW12 30.19F WCI 28 PORTSMOUTH NH SUNNY 34 7 32 W6 30.16F WCI 29 JAFFREY NH SUNNY 31 -1 25 VRB5 30.14F WCI 26 KEENE NH SUNNY 34 1 25 N10 30.19F WCI 26 BURLINGTON VT MOSUNNY 34 1 24 W6 30.21F WCI 29 MT. WASHINGTON MOSUNNY 7 -18 30 N24 N/A WCI -15 $$ NYZ052-076-291700- EASTERN NEW YORK CITY SKY/WX TMP DP RH WIND PRES REMARKS ALBANY SUNNY 35 8 32 W12 30.26F WCI 27 NEW YORK CITY SUNNY 36 3 25 NW9 30.28S WCI 29 $$ ANZALL-291700- MARINE OBSERVATIONS STATION/POSITION TIME TEMP WIND PRES VSBY WAVE AIR SEA DIR/SP/G HT/PER (UTC) (F) (DEG/KT/KT) (MB) (MI) (FT/S) BOSTON BUOY 1550 30 36 320/ 4/ 6 1023.0F 5/11 BUZZARDS BAY 1600 360/ 5/ 7 1023.3R NANTUCKET SOUND 1550 34 38 360/ 14/ 17 1021.7R 3/ 3 MASS BAY-STELLWA 1504 29 38 360/ 8/ 10 N/A 1 7/8 7/11 ISLE OF SHOALS 1600 29 190/ 5/ 6 1021.6F S OF BLOCK IS 1508 37 N/A 5/11 $$ ......................KEY......................... SKY/WX - SKY CONDITION/PRESENT WEATHER TMP - TEMPERATURE IN FAHRENHEIT DWPT - DEWPOINT IN FAHRENHEIT RH - RELATIVE HUMIDITY IN PERCENT WIND - DIRECTION AND SPEED IN MPH PRES - MEAN SEA LEVEL PRESSURE IN INCHES OF HG WCI - WIND CHILL INDEX VSB - VISIBILITY IN MILES HX - HEAT INDEX TC - TEMPERATURE IN CELSIUS VRB - VARIABLE WIND DIRECTION N/A - NOT AVAILABLE

USA.gov is the U.S. government's official web portal to all federal, state and local government web resources and services.